Retour au catalogue

STARLINK-32341

ActifCommunicationsVLEO
NORAD 61639·PAYLOAD·🇺🇸 United States

Lancé Oct 23, 2024 depuis Cape Canaveral Space Force Station

Loading…

Prochains Passages (prochaines 24 heures)

TLE

FraisSource: CelesTrak SupGP

Époque: Sep 14, 2026, 21:22 UTC

1 61639C 24191U   26257.89076389 -.00012121  00000+0 -43922-3 0  2572
2 61639  42.9990 166.0552 0001524 271.7380  11.8959 15.27569191    15

Suivez STARLINK-32341 en temps réel avec AllMySat

Download on the App Store